Regional Weather Roundup
Issued by NWS

Home | Current Version | Previous Version | Graphics & Text | Print | Product List | Glossary On
Versions: 1 2 3 4 5 6 7 8 9 10 11 12 13 14 15 16 17 18 19 20 21 22 23 24 25 26 27 28 29 30 31 32 33 34 35 36 37 38 39 40 41 42 43 44 45 46 47 48 49 50
000
ASUS43 KMPX 310210
RWRMN
WEATHER ROUNDUP FOR MINNESOTA
NATIONAL WEATHER SERVICE TWIN CITIES/CHANHASSEN MN
900 PM CDT SUN AUG 30 2015


NOTE: "FAIR" INDICATES FEW OR NO CLOUDS BELOW 12,000 FEET WITH NO
SIGNIFICANT WEATHER AND/OR OBSTRUCTIONS TO VISIBILITY. N/A MEANS
CURRENT SKY AND/OR WEATHER CONDITIONS ARE NOT AVAILABLE.

MNZ060>063-068>070-310300-
   Twin Cities Metro

CITY           SKY/WX    TMP DP  RH WIND       PRES   REMARKS
TWIN CITIES    PTCLDY    73  66  78 S8        29.93R
ST PAUL        CLEAR     70  66  87 S6        29.93R
CRYSTAL        CLEAR     74  66  76 S8        29.91R
BLAINE         CLEAR     73  66  78 S9        29.92R
LAKEVILLE      CLEAR     66  66 100 CALM      29.94S
EDEN PRAIRIE   CLEAR     71  66  84 S9        29.93R
SOUTH ST PAUL  CLEAR     71  65  81 S8        29.93R
LAKE ELMO      FAIR      70  66  88 S7        29.95R
$$
MNZ001>005-007-008-013>017-022>024-027-028-310300-
   Northwest Minnesota

CITY           SKY/WX    TMP DP  RH WIND       PRES   REMARKS
BEMIDJI        PTCLDY    73  67  83 S8        29.80S
HALLOCK        PTCLDY    79  70  73 S14       29.64S
ROSEAU         MOCLDY    77  70  78 S8        29.70S
WARROAD        CLOUDY    75  72  88 S9        29.71S
THIEF RVR FALL MOCLDY   N/A N/A N/A S14       29.72R
CROOKSTON      MOCLDY    77  68  73 S15       29.71R
FOSSTON        MOCLDY    72  64  78 S9        29.77S
DETROIT LAKES  MOCLDY    73  68  83 S13       29.81S
MOORHEAD       MOCLDY    75  70  83 SE16      29.74S
PARK RAPIDS    PTCLDY    74  67  78 S12       29.83R
MAHNOMEN       FAIR      74  67  78 S9        29.76S
$$
MNZ006-009>011-018-025>026-310300-
   North Central Minnesota

CITY           SKY/WX    TMP DP  RH WIND       PRES   REMARKS
BAUDETTE       MOCLDY    73  68  84 SE8       29.75R
FLAG ISLAND    MOCLDY    75  68  78 SE15      29.70F
INTL FALLS     PTCLDY    70  67  90 SE5       29.79R
WASKISH        PTCLDY    73  70  88 SE8       29.77R
BIG FORK       CLEAR     70  66  88 S5        29.84R
LONGVILLE      CLEAR     68  66  94 CALM      29.85S
GRAND RAPIDS     N/A     70  64  83 S12       29.86R
CRANE LAKE     PTCLDY    66  64  94 CALM      29.83R
ORR            CLEAR     72  63  73 CALM      29.81R
COOK           PTCLDY    72  66  83 S3        29.85R
WALKER         FAIR      72  67  84 S8        29.83R
$$
MNZ012-019>021-037-310300-
   Northeast Minnesota

CITY           SKY/WX    TMP DP  RH WIND       PRES   REMARKS
DULUTH         PTCLDY    70  63  78 S7        29.90R
ELY            PTCLDY    72  66  83 S6        29.86S
HIBBING        FAIR      71  65  81 SE3       29.87R
EVELETH        PTCLDY    72  68  88 S5        29.89R
DULUTH HARBOR  PTCLDY    72  66  83 SW6       29.88R
TWO HARBORS    PTCLDY    73  66  78 SW7       29.87R
SILVER BAY     CLEAR     70  66  88 CALM      29.86S
GRAND MARAIS     N/A     57  55  93 CALM      29.85R
G MARAIS ARPRT CLEAR     64  61  88 CALM      29.91R FOG
$$
MNZ029>031-032-039>041-046>048-054>057-064-310300-
   West Central Minnesota

CITY           SKY/WX    TMP DP  RH WIND       PRES   REMARKS
FERGUS FALLS   PTCLDY    73  66  78 S13       29.79R
WHEATON        MOCLDY    70  64  83 SE15      29.79R
MORRIS         PTCLDY    72  68  88 SE13      29.82S
ALEXANDRIA     PTCLDY    72  66  81 S13       29.87R
ELBOW LAKE     FAIR      72  67  85 S16       29.81R
WADENA         CLEAR     72  66  83 S10       29.84R
GLENWOOD       PTCLDY    70  64  83 S9        29.88R
APPLETON       PTCLDY    73  63  68 S12G17    29.83R
BENSON         CLEAR     70  64  83 S8        29.85S
ORTONVILLE     PTCLDY    70  64  83 SE7       29.81R
MADISON        PTCLDY    68  63  83 S8        29.84R
WILLMAR        FAIR      70  66  88 SE7       29.89S
$$
MNZ033>034-036-042>043-049>051-058-059-310300-
   Central Minnesota

CITY           SKY/WX    TMP DP  RH WIND       PRES   REMARKS
ST CLOUD       CLEAR     69  66  90 S8        29.89R
SAUK CENTRE    FAIR      69  66  90 SE5       29.88R
PAYNESVILLE    PTCLDY    72  67  84 SE8       29.89S
AITKIN         CLEAR     70  64  83 S6        29.86S
PINE RIVER     CLEAR     70  66  88 S5        29.89R
BRAINERD       CLEAR     70  65  84 S9        29.87R
STAPLES        CLEAR     72  66  83 S7        29.86R
LONG PRAIRIE   FAIR      68  64  88 S8        29.88R
LITTLE FALLS   CLEAR     70  63  78 SE7       29.88S
LITCHFIELD     CLEAR     72  70  94 S5        29.90S
BUFFALO        CLEAR     71  65  83 SE6       29.92S
MAPLE LAKE     FAIR      71  68  90 S6        29.91S
$$
MNZ037-044-045-052-053-310300-
   East Central Minnesota

CITY           SKY/WX    TMP DP  RH WIND       PRES   REMARKS
PRINCETON      CLEAR     72  66  83 S7        29.91R
MORA           CLEAR     70  63  78 S6        29.92R
CAMBRIDGE      CLEAR     73  61  64 S6        29.90R
RUSH CITY      CLEAR     69  65  85 S6        29.91S
MOOSE LAKE     PTCLDY    70  64  83 S3        29.87S
HINCKLEY       FAIR      70  66  88 S5        29.91R
CLOQUET        PTCLDY    70  63  78 S5        29.89S
MCGREGOR       CLEAR     70  64  83 S5        29.88S
$$
MNZ071>073-080-081-089-090-097-098-310300-
   Southwest Minnesota

CITY           SKY/WX    TMP DP  RH WIND       PRES   REMARKS
MONTEVIDEO     PTCLDY    70  64  83 S9        29.88R
GRANITE FALLS  PTCLDY    69  66  89 SE8       29.89R
CANBY          PTCLDY    69  61  74 S8        29.86R
MARSHALL       CLEAR     70  61  73 S12       29.89R
REDWOOD FALLS  PTCLDY    70  66  87 S10       29.89R
OLIVIA         PTCLDY    68  63  83 S9        29.89R
PIPESTONE      PTCLDY    64  63  94 S9        29.92R
WINDOM         CLEAR     70  64  83 S8        29.94R
WORTHINGTON    CLEAR     66  61  82 S10       29.94S
JACKSON        CLEAR     68  64  88 S10       29.96R
TRACY          CLEAR     70  66  88 S15       29.89S
SLAYTON        FAIR      65  64  98 CALM      29.94R
$$
MNZ065>067-074>077-082>085-091>093-310300-
   South Central Minnesota

CITY           SKY/WX    TMP DP  RH WIND       PRES   REMARKS
MANKATO        CLEAR     68  63  83 S12       29.94R
NEW ULM        CLEAR     68  66  94 S8        29.92S
ST JAMES       CLEAR     70  66  88 S9        29.94S
FAIRMONT       CLEAR     66  61  82 S8        29.95S
GLENCOE        CLEAR     71  69  93 S5        29.92S
FARIBAULT      CLEAR     68  64  88 S6        29.96R
OWATONNA       CLEAR     68  64  88 S7        29.96S
WASECA         CLEAR     64  63  94 S7        29.97S
ALBERT LEA     CLEAR     68  64  88 S6        29.97S
$$
MNZ078>079-086>088-094>096-310300-
   Southeast Minnesota

CITY           SKY/WX    TMP DP  RH WIND       PRES   REMARKS
ROCHESTER      CLEAR     64  62  93 S8        30.00R
RED WING       CLEAR     70  64  83 S5        29.95S
STANTON        CLEAR     68  64  86 S5        29.94R
DODGE CENTER   CLEAR     64  63  94 S8        29.98S
WINONA         CLEAR     68  64  88 CALM      29.98S
PRESTON        CLEAR     64  61  91 S7        30.01R
$$
ABBREVIATIONS USED IN REMARKS
   TC - TEMPERATURES IN CELSIUS
  WCI - WIND CHILL INDEX
   HX - HEAT INDEX
  VSB - VISIBILITY
$$


USA.gov is the U.S. government's official web portal to all federal, state and local government web resources and services.